Weather History for Dyersburg, TN

Change the Weather History Date:

Monday, April 21, 2014

  Actual Average Record
Temperature  
Mean Temperature 66 °F -  
Max Temperature 77 °F 68 °F 84 °F (2005)
Min Temperature 55 °F 51 °F 42 °F (2009)
Cooling Degree Days 1    
Growing Degree Days 16 (Base 50)    
Moisture  
Dew Point 49 °F    
Average Humidity 54    
Maximum Humidity 68    
Minimum Humidity 41    
Precipitation  
Precipitation 0.00 in - - ()
Sea Level Pressure  
Sea Level Pressure 30.03 in    
Wind  
Wind Speed 3 mph (SW)    
Max Wind Speed 15 mph    
Max Gust Speed 18 mph    
Visibility 10 miles    
Events      
Averages and records for this station are not official NWS values.
T = Trace of Precipitation, MM = Missing Value Source: NWS Daily Summary

Daily Weather History Graph

Daily Weather History Graph

Search for Another Location

Airport:

Trip Planner

Search our weather history database for the weather conditions in past years. The results will help you decide how hot, cold, wet, or windy it might be!

Date:

Astronomy

Apr. 21, 2014 Rise Set
Actual Time 6:16 AM CDT 7:36 PM CDT
Civil Twilight 5:50 AM CDT 8:03 PM CDT
Nautical Twilight 5:18 AM CDT 8:35 PM CDT
Astronomical Twilight 4:44 AM CDT 9:08 PM CDT
Moon 1:03 AM CDT (4/21) 11:45 AM CDT (4/21)
Length of Visible Light 14h 13m
Length of Day
13h 19m
Waning Gibbous, 57% of the Moon is Illuminated
Apr 21
Waning Gibbous
Apr 22
Last Quarter
Apr 29
New
May 6
First Quarter
May 14
Full

Hourly Weather History & Observations

Time (CDT) Temp. Dew Point Humidity Pressure Visibility Wind Dir Wind Speed Gust Speed Precip Events Conditions
12:15 AM 60.8 °F 44.6 °F 55% 30.10 in 10.0 mi Calm Calm - N/A   Clear
12:35 AM 57.2 °F 44.6 °F 63% 30.11 in 10.0 mi Calm Calm - N/A   Clear
12:55 AM 57.2 °F 44.6 °F 63% 30.10 in 10.0 mi Calm Calm - N/A   Clear
1:15 AM 57.2 °F 44.6 °F 63% 30.10 in 10.0 mi Calm Calm - N/A   Clear
1:35 AM 60.8 °F 44.6 °F 55% 30.09 in 10.0 mi SSE 3.5 mph - N/A   Clear
1:55 AM 60.8 °F 44.6 °F 55% 30.09 in 10.0 mi Calm Calm - N/A   Clear
2:15 AM 60.8 °F 44.6 °F 55% 30.09 in 10.0 mi SSE 3.5 mph - N/A   Clear
2:35 AM 60.8 °F 44.6 °F 55% 30.08 in 10.0 mi Calm Calm - N/A   Clear
2:55 AM 57.2 °F 44.6 °F 63% 30.08 in 10.0 mi Calm Calm - N/A   Clear
3:15 AM 57.2 °F 44.6 °F 63% 30.08 in 10.0 mi South 3.5 mph - N/A   Clear
3:35 AM 57.2 °F 44.6 °F 63% 30.08 in 10.0 mi SE 3.5 mph - N/A   Clear
3:55 AM 57.2 °F 46.4 °F 67% 30.07 in 10.0 mi Calm Calm - N/A   Partly Cloudy
4:15 AM 60.8 °F 44.6 °F 55% 30.07 in 10.0 mi Calm Calm - N/A   Partly Cloudy
4:35 AM 59.0 °F 44.6 °F 59% 30.07 in 10.0 mi Calm Calm - N/A   Clear
4:55 AM 55.4 °F 44.6 °F 67% 30.07 in 10.0 mi Calm Calm - N/A   Clear
5:15 AM 57.2 °F 44.6 °F 63% 30.08 in 10.0 mi SSE 3.5 mph - N/A   Clear
5:35 AM 57.2 °F 44.6 °F 63% 30.08 in 10.0 mi Calm Calm - N/A   Clear
5:55 AM 57.2 °F 44.6 °F 63% 30.08 in 10.0 mi Calm Calm - N/A   Clear
6:15 AM 59.0 °F 44.6 °F 59% 30.08 in 10.0 mi SE 4.6 mph - N/A   Clear
6:35 AM 57.2 °F 44.6 °F 63% 30.09 in 10.0 mi Calm Calm - N/A   Clear
6:55 AM 57.2 °F 44.6 °F 63% 30.09 in 10.0 mi Calm Calm - N/A   Clear
7:15 AM 59.0 °F 44.6 °F 59% 30.09 in 10.0 mi SSE 4.6 mph - N/A   Clear
7:35 AM 60.8 °F 44.6 °F 55% 30.09 in 10.0 mi SSE 3.5 mph - N/A   Clear
7:55 AM 62.6 °F 44.6 °F 52% 30.09 in 10.0 mi SSE 4.6 mph - N/A   Clear
8:15 AM 62.6 °F 46.4 °F 55% 30.08 in 10.0 mi South 5.8 mph - N/A   Clear
8:35 AM 64.4 °F 46.4 °F 52% 30.08 in 10.0 mi South 4.6 mph - N/A   Clear
8:55 AM 66.2 °F 48.2 °F 52% 30.08 in 10.0 mi South 5.8 mph - N/A   Clear
9:15 AM 68.0 °F 48.2 °F 49% 30.07 in 10.0 mi SSE 4.6 mph - N/A   Clear
9:35 AM 69.8 °F 48.2 °F 46% 30.07 in 10.0 mi South 6.9 mph - N/A   Mostly Cloudy
9:55 AM 71.6 °F 48.2 °F 43% 30.07 in 10.0 mi South 5.8 mph - N/A   Overcast
10:15 AM 73.4 °F 50.0 °F 44% 30.07 in 10.0 mi South 4.6 mph - N/A   Mostly Cloudy
10:35 AM 73.4 °F 50.0 °F 44% 30.07 in 10.0 mi SSW 5.8 mph - N/A   Overcast
10:55 AM 73.4 °F 50.0 °F 44% 30.07 in 10.0 mi West 10.4 mph 16.1 mph N/A   Mostly Cloudy
11:15 AM 73.4 °F 51.8 °F 47% 30.08 in 10.0 mi WSW 9.2 mph - N/A   Scattered Clouds
11:35 AM 75.2 °F 51.8 °F 44% 30.07 in 10.0 mi West 3.5 mph - N/A   Partly Cloudy
11:55 AM 77.0 °F 51.8 °F 41% 30.06 in 10.0 mi WSW 12.7 mph 16.1 mph N/A   Clear
12:15 PM 77.0 °F 51.8 °F 41% 30.05 in 10.0 mi West 12.7 mph 17.3 mph N/A   Clear
12:35 PM 75.2 °F 51.8 °F 44% 30.05 in 10.0 mi WNW 10.4 mph - N/A   Partly Cloudy
12:55 PM 75.2 °F 51.8 °F 44% 30.05 in 10.0 mi West 15.0 mph 18.4 mph N/A   Partly Cloudy
1:15 PM 73.4 °F 51.8 °F 47% 30.04 in 10.0 mi West 10.4 mph - N/A   Scattered Clouds
1:35 PM 71.6 °F 50.0 °F 46% 30.05 in 10.0 mi West 12.7 mph 17.3 mph N/A   Mostly Cloudy
1:55 PM 71.6 °F 51.8 °F 50% 30.04 in 10.0 mi WSW 9.2 mph - N/A   Scattered Clouds
2:15 PM 71.6 °F 50.0 °F 46% 30.03 in 10.0 mi WSW 6.9 mph - N/A   Mostly Cloudy
2:35 PM 71.6 °F 50.0 °F 46% 30.03 in 10.0 mi WSW 8.1 mph - N/A   Mostly Cloudy
2:55 PM 71.6 °F 50.0 °F 46% 30.01 in 10.0 mi West 5.8 mph - N/A   Mostly Cloudy
3:15 PM 71.6 °F 51.8 °F 50% 30.00 in 10.0 mi WSW 5.8 mph - N/A   Mostly Cloudy
3:35 PM 71.6 °F 50.0 °F 46% 29.99 in 10.0 mi Calm Calm - N/A   Mostly Cloudy
3:55 PM 71.6 °F 51.8 °F 50% 29.98 in 10.0 mi SSW 3.5 mph - N/A   Mostly Cloudy
4:15 PM 73.4 °F 51.8 °F 47% 29.97 in 10.0 mi South 3.5 mph - N/A   Mostly Cloudy
4:35 PM 73.4 °F 51.8 °F 47% 29.96 in 10.0 mi SSE 4.6 mph - N/A   Clear
4:55 PM 73.4 °F 51.8 °F 47% 29.96 in 10.0 mi South 3.5 mph - N/A   Scattered Clouds
5:15 PM 73.4 °F 53.6 °F 50% 29.96 in 10.0 mi WSW 8.1 mph - N/A   Mostly Cloudy
5:35 PM 73.4 °F 53.6 °F 50% 29.95 in 10.0 mi WSW 8.1 mph - N/A   Mostly Cloudy
5:55 PM 73.4 °F 51.8 °F 47% 29.95 in 10.0 mi SW 8.1 mph - N/A   Overcast
6:15 PM 73.4 °F 51.8 °F 47% 29.95 in 10.0 mi SW 6.9 mph - N/A   Mostly Cloudy
6:35 PM 71.6 °F 51.8 °F 50% 29.95 in 10.0 mi SW 5.8 mph - N/A   Overcast
6:55 PM 71.6 °F 51.8 °F 50% 29.94 in 10.0 mi Calm Calm - N/A   Overcast
7:15 PM 71.6 °F 51.8 °F 50% 29.94 in 10.0 mi SW 3.5 mph - N/A   Mostly Cloudy
7:35 PM 69.8 °F 51.8 °F 53% 29.94 in 10.0 mi Calm Calm - N/A   Partly Cloudy
7:55 PM 69.8 °F 51.8 °F 53% 29.94 in 10.0 mi Calm Calm - N/A   Mostly Cloudy
8:15 PM 68.0 °F 51.8 °F 56% 29.94 in 10.0 mi Calm Calm - N/A   Mostly Cloudy
8:35 PM 66.2 °F 51.8 °F 60% 29.95 in 8.0 mi Calm Calm - N/A   Partly Cloudy
8:55 PM 66.2 °F 51.8 °F 60% 29.95 in 10.0 mi Calm Calm - N/A   Mostly Cloudy
9:15 PM 68.0 °F 51.8 °F 56% 29.96 in 10.0 mi WSW 9.2 mph 17.3 mph N/A   Overcast
9:35 PM 68.0 °F 53.6 °F 60% 29.96 in 10.0 mi WSW 10.4 mph - N/A   Mostly Cloudy
9:55 PM 66.2 °F 53.6 °F 64% 29.96 in 10.0 mi WSW 8.1 mph - N/A   Scattered Clouds
10:15 PM 66.2 °F 53.6 °F 64% 29.96 in 10.0 mi West 6.9 mph - N/A   Scattered Clouds
10:35 PM 66.2 °F 53.6 °F 64% 29.96 in 10.0 mi WSW 6.9 mph - N/A   Partly Cloudy
10:55 PM 64.4 °F 53.6 °F 68% 29.96 in 10.0 mi WSW 8.1 mph - N/A   Clear
11:15 PM 64.4 °F 53.6 °F 68% 29.96 in 10.0 mi WSW 5.8 mph - N/A   Clear
11:35 PM 64.4 °F 53.6 °F 68% 29.96 in 10.0 mi WSW 8.1 mph - N/A   Scattered Clouds
11:55 PM 64.4 °F 53.6 °F 68% 29.96 in 10.0 mi WSW 8.1 mph - N/A   Mostly Cloudy